Погода в Чагде

Россия / Республика Саха (Якутия)     58°45′01″N   130°36′28″E
темп.,
°C
ветер,
м/с
пор.,
м/с
влажн.,
%
обл.,
%
осадки,
мм/ч
давл.,
гПа
погр.,
м
1 марта, пн
пн100:00−24з41088100 0.0 1029633
03:00−25з4990100 0.0 1030724
06:00−25з4991100 0.1 1030781
09:00−24з5888100 0.1 1030981
12:00−23з5884100 0.1 10291163
15:00−22з5881100 0.1 10281353
18:00−24з3889100 0.1 1029356
21:00−27зюз2693100 0.1 1029135
2 марта, вт
вт200:00−27зюз2695100 0.0 1029179
03:00−28з2597100 0.1 1029135
06:00−30з2297100 0.1 102922
09:00−28з2595100 0.1 1029195
12:00−24з248598 0.0 1027786
15:00−22зюз237899 0.0 10251143
18:00−27юз1187100 0.0 102619
21:00−31ю118883 0.0 102619
3 марта, ср
ср300:00−34юз008668 0.0 102519
03:00−36ссв118561 0.0 102519
06:00−37ссв118527 0.0 102419
09:00−32ссв118814 0.0 102285
12:00−26св128328 0.0 1019346
15:00−23св238533 0.0 1017411
18:00−29св119462 0.0 101819
21:00−31з119671 0.0 101919
4 марта, чт
чт400:00−32зюз119898 0.0 101919
03:00−30з119999 0.1 102120
06:00−30з2298100 0.1 102229
09:00−27з51087100 0.2 1022799
12:00−26з61084100 0.0 10221145
15:00−25з61183100 0.1 10211387
18:00−27з41086100 0.1 10231102
21:00−28з31093100 0.1 1026688
5 марта, пт
пт500:00−28з4993100 0.1 1026788
03:00−29з3991100 0.1 1027851
06:00−30з4989100 0.0 1028852
09:00−29з61082100 0.0 10291110
12:00−26з61182100 0.0 10281229
15:00−24з61183100 0.1 10271290
18:00−25з51186100 0.1 10281182
21:00−25з51191100 0.1 10291115